User: anonymous   Login
Location: Unspecified
(0.0000°N, 0.0000°E)
Time: 12:48:26
(UTC+00:00)
Language:

IGS 7A - Orbit

View from above orbital plane
View from above orbital plane
View from above satellite
View from above satellite

Ground track
Ground track

The orbit data is extracted from the following two-line orbital elements,

1 37954U 11075A   17229.85355720 0.00000000  00000-0  00000-0 0    01
2 37954  97.4413 304.4804 0003000 339.5385  20.4613 15.17636133    02
Epoch (UTC): 17 August 2017 20:29:07
Eccentricity: 0.0003000
inclination: 97.4413°
perigee height: 511 km
apogee height: 515 km
right ascension of ascending node: 304.4804°
argument of perigee: 339.5385°
revolutions per day: 15.17636133
mean anomaly at epoch: 20.4613°
orbit number at epoch: 0

The dashed part of the orbit path shows where the satellite is in the earth's shadow,  

DLR